| time (UTC) | temp F | wind direction | speed MPH | gust MPH | rain 1hr in | rain 24hr in | rain mn in | humidity % | barometer mb |
| 20260903063959 | 81 | 93 | 0.0 | 2.0 | 0.00 | 0.00 | 0.00 | 72 | 1013.3 |
| 20260903063500 | 82 | 99 | 0.0 | 2.0 | 0.00 | 0.00 | 0.00 | 72 | 1013.4 |
| 20260903063004 | 82 | 98 | 0.0 | 3.0 | 0.00 | 0.00 | 0.00 | 72 | 1013.4 |
| 20260903062500 | 82 | 99 | 1.0 | 6.0 | 0.00 | 0.00 | 0.00 | 71 | 1013.5 |
| 20260903062000 | 82 | 95 | 0.0 | 4.0 | 0.00 | 0.00 | 0.00 | 71 | 1013.6 |
| 20260903061502 | 82 | 87 | 1.0 | 4.0 | 0.00 | 0.00 | 0.00 | 71 | 1013.6 |
| 20260903061000 | 82 | 78 | 1.0 | 3.0 | 0.00 | 0.00 | 0.00 | 70 | 1013.6 |
| 20260903060459 | 82 | 117 | 0.0 | 4.0 | 0.00 | 0.00 | 0.00 | 70 | 1013.6 |
| 20260903060010 | 82 | 122 | 1.0 | 8.0 | 0.00 | 0.00 | 0.00 | 70 | 1013.7 |
| 20260903055505 | 83 | 154 | 2.0 | 8.0 | 0.00 | 0.00 | 0.00 | 69 | 1013.7 |
| 20260903055006 | 83 | 138 | 2.0 | 10.0 | 0.00 | 0.00 | 0.00 | 69 | 1013.9 |
| 20260903054006 | 83 | 123 | 2.0 | 10.0 | 0.00 | 0.00 | 0.00 | 68 | 1014.0 |
| 20260903053505 | 83 | 106 | 3.0 | 10.0 | 0.00 | 0.00 | 0.00 | 68 | 1013.9 |
| 20260903053010 | 84 | 84 | 2.0 | 9.0 | 0.00 | 0.00 | 0.00 | 67 | 1013.8 |
| 20260903052507 | 84 | 94 | 2.0 | 7.0 | 0.00 | 0.00 | 0.00 | 66 | 1013.8 |
| 20260903051510 | 84 | 161 | 3.0 | 8.0 | 0.00 | 0.00 | 0.00 | 65 | 1013.7 |
| 20260903050507 | 85 | 88 | 2.0 | 10.0 | 0.00 | 0.00 | 0.00 | 64 | 1013.7 |
| 20260903044509 | 85 | 92 | 1.0 | 6.0 | 0.00 | 0.00 | 0.00 | 63 | 1013.5 |
| 20260903044005 | 85 | 92 | 0.0 | 7.0 | 0.00 | 0.00 | 0.00 | 63 | 1013.5 |
| 20260903043505 | 86 | 95 | 0.0 | 7.0 | 0.00 | 0.00 | 0.00 | 62 | 1013.5 |
| 20260903043009 | 86 | 98 | 2.0 | 7.0 | 0.00 | 0.00 | 0.00 | 62 | 1013.5 |
| 20260903042506 | 86 | 98 | 1.0 | 7.0 | 0.00 | 0.00 | 0.00 | 62 | 1013.6 |
| 20260903041511 | 86 | 69 | 0.0 | 7.0 | 0.00 | 0.00 | 0.00 | 61 | 1013.6 |
| 20260903041006 | 86 | 144 | 2.0 | 7.0 | 0.00 | 0.00 | 0.00 | 61 | 1013.6 |
| 20260903040505 | 86 | 61 | 2.0 | 7.0 | 0.00 | 0.00 | 0.00 | 61 | 1013.6 |
| 20260903040011 | 86 | 128 | 0.0 | 8.0 | 0.00 | 0.00 | 0.00 | 60 | 1013.6 |
| 20260903035004 | 87 | 66 | 2.0 | 9.0 | 0.00 | 0.00 | 0.00 | 59 | 1013.5 |
| 20260903034508 | 87 | 45 | 2.0 | 9.0 | 0.00 | 0.00 | 0.00 | 59 | 1013.6 |
| 20260903034004 | 87 | 163 | 3.0 | 9.0 | 0.00 | 0.00 | 0.00 | 59 | 1013.6 |
| 20260903033505 | 87 | 146 | 2.0 | 9.0 | 0.00 | 0.00 | 0.00 | 59 | 1013.6 |
| 20260903033008 | 88 | 153 | 2.0 | 7.0 | 0.00 | 0.00 | 0.00 | 59 | 1013.6 |
| 20260903032506 | 88 | 82 | 1.0 | 10.0 | 0.00 | 0.00 | 0.00 | 59 | 1013.5 |
| 20260903032005 | 88 | 121 | 3.0 | 10.0 | 0.00 | 0.00 | 0.00 | 58 | 1013.5 |
| 20260903031005 | 89 | 123 | 1.0 | 9.0 | 0.00 | 0.00 | 0.00 | 57 | 1013.3 |
| 20260903030505 | 90 | 106 | 2.0 | 9.0 | 0.00 | 0.00 | 0.00 | 56 | 1013.3 |
| 20260903030011 | 90 | 169 | 3.0 | 9.0 | 0.00 | 0.00 | 0.00 | 56 | 1013.1 |
| 20260903025504 | 91 | 112 | 1.0 | 9.0 | 0.00 | 0.00 | 0.00 | 54 | 1013.1 |
| 20260903025004 | 91 | 111 | 2.0 | 9.0 | 0.00 | 0.00 | 0.00 | 52 | 1013.0 |
| 20260903024004 | 91 | 80 | 1.0 | 7.0 | 0.00 | 0.00 | 0.00 | 52 | 1012.7 |
| 20260903023504 | 91 | 137 | 1.0 | 9.0 | 0.00 | 0.00 | 0.00 | 51 | 1012.7 |
| 20260903023008 | 91 | 78 | 2.0 | 9.0 | 0.00 | 0.00 | 0.00 | 51 | 1012.7 |
| 20260903022505 | 91 | 118 | 1.0 | 9.0 | 0.00 | 0.00 | 0.00 | 51 | 1012.6 |
| 20260903022005 | 91 | 116 | 2.0 | 10.0 | 0.00 | 0.00 | 0.00 | 51 | 1012.6 |
| 20260903021508 | 92 | 161 | 1.0 | 10.0 | 0.00 | 0.00 | 0.00 | 51 | 1012.6 |
| 20260903021004 | 92 | 69 | 1.0 | 8.0 | 0.00 | 0.00 | 0.00 | 52 | 1012.5 |
| 20260903020504 | 92 | 103 | 1.0 | 7.0 | 0.00 | 0.00 | 0.00 | 52 | 1012.4 |
| 20260903015504 | 92 | 113 | 0.0 | 4.0 | 0.00 | 0.00 | 0.00 | 51 | 1012.4 |
| 20260903015005 | 92 | 115 | 0.0 | 6.0 | 0.00 | 0.00 | 0.00 | 50 | 1012.3 |
| 20260903014508 | 92 | 125 | 0.0 | 6.0 | 0.00 | 0.00 | 0.00 | 50 | 1012.2 |
| 20260903013504 | 92 | 118 | 0.0 | 4.0 | 0.00 | 0.00 | 0.00 | 53 | 1012.1 |
| 20260903013008 | 93 | 98 | 0.0 | 7.0 | 0.00 | 0.00 | 0.00 | 53 | 1012.0 |
| 20260903012504 | 93 | 99 | 0.0 | 7.0 | 0.00 | 0.00 | 0.00 | 53 | 1011.9 |
| 20260903012005 | 93 | 80 | 0.0 | 8.0 | 0.00 | 0.00 | 0.00 | 52 | 1011.9 |
| 20260903011006 | 93 | 90 | 1.0 | 6.0 | 0.00 | 0.00 | 0.00 | 50 | 1011.8 |
| 20260903010504 | 93 | 118 | 0.0 | 3.0 | 0.00 | 0.00 | 0.00 | 50 | 1011.7 |
| 20260903010010 | 94 | 128 | 0.0 | 3.0 | 0.00 | 0.00 | 0.00 | 50 | 1011.8 |
| 20260903005005 | 94 | 114 | 1.0 | 7.0 | 0.00 | 0.00 | 0.00 | 50 | 1011.8 |
| 20260903004508 | 95 | 105 | 0.0 | 5.0 | 0.00 | 0.00 | 0.00 | 49 | 1011.7 |
| 20260903004005 | 95 | 132 | 1.0 | 7.0 | 0.00 | 0.00 | 0.00 | 48 | 1011.8 |
| 20260903003506 | 95 | 130 | 0.0 | 7.0 | 0.00 | 0.00 | 0.00 | 47 | 1011.8 |
| 20260903003008 | 96 | 113 | 1.0 | 10.0 | 0.00 | 0.00 | 0.00 | 46 | 1011.7 |
| 20260903002504 | 97 | 155 | 1.0 | 10.0 | 0.00 | 0.00 | 0.00 | 44 | 1011.7 |
| 20260903002004 | 97 | 90 | 0.0 | 7.0 | 0.00 | 0.00 | 0.00 | 43 | 1011.7 |
| 20260903001507 | 97 | 90 | 0.0 | 8.0 | 0.00 | 0.00 | 0.00 | 42 | 1011.6 |
| 20260903001005 | 97 | 109 | 1.0 | 8.0 | 0.00 | 0.00 | 0.00 | 41 | 1011.5 |
| 20260903000504 | 98 | 98 | 3.0 | 10.0 | 0.00 | 0.00 | 0.00 | 41 | 1011.5 |
| 20260903000010 | 98 | 84 | 1.0 | 10.0 | 0.00 | 0.00 | 0.00 | 41 | 1011.5 |
| 20260902235505 | 98 | 74 | 0.0 | 8.0 | 0.00 | 0.00 | 0.00 | 40 | 1011.5 |
| 20260902235004 | 98 | 109 | 1.0 | 11.0 | 0.00 | 0.00 | 0.00 | 40 | 1011.4 |
| 20260902234004 | 99 | 107 | 2.0 | 6.0 | 0.00 | 0.00 | 0.00 | 39 | 1011.5 |
| 20260902233505 | 99 | 92 | 3.0 | 9.0 | 0.00 | 0.00 | 0.00 | 39 | 1011.5 |
| 20260902233008 | 99 | 87 | 1.0 | 5.0 | 0.00 | 0.00 | 0.00 | 39 | 1011.5 |
| 20260902231508 | 99 | 91 | 2.0 | 6.0 | 0.00 | 0.00 | 0.00 | 38 | 1011.3 |
| 20260902231004 | 99 | 74 | 1.0 | 6.0 | 0.00 | 0.00 | 0.00 | 39 | 1011.4 |
| 20260902230504 | 99 | 42 | 3.0 | 10.0 | 0.00 | 0.00 | 0.00 | 39 | 1011.4 |
| 20260902230011 | 99 | 84 | 2.0 | 10.0 | 0.00 | 0.00 | 0.00 | 39 | 1011.5 |
| 20260902225003 | 99 | 81 | 2.0 | 7.0 | 0.00 | 0.00 | 0.00 | 39 | 1011.5 |
| 20260902224507 | 100 | 63 | 2.0 | 7.0 | 0.00 | 0.00 | 0.00 | 38 | 1011.5 |
| 20260902224003 | 100 | 65 | 3.0 | 7.0 | 0.00 | 0.00 | 0.00 | 38 | 1011.5 |
| 20260902223008 | 100 | 71 | 0.0 | 8.0 | 0.00 | 0.00 | 0.00 | 39 | 1011.5 |
| 20260902222504 | 99 | 67 | 2.0 | 8.0 | 0.00 | 0.00 | 0.00 | 39 | 1011.6 |
| 20260902222003 | 100 | 67 | 4.0 | 8.0 | 0.00 | 0.00 | 0.00 | 38 | 1011.7 |
| 20260902221507 | 100 | 55 | 0.0 | 9.0 | 0.00 | 0.00 | 0.00 | 39 | 1011.7 |
| 20260902221003 | 99 | 87 | 3.0 | 9.0 | 0.00 | 0.00 | 0.00 | 38 | 1011.7 |
| 20260902220009 | 100 | 37 | 2.0 | 8.0 | 0.00 | 0.00 | 0.00 | 38 | 1011.9 |
| 20260902215504 | 100 | 67 | 2.0 | 8.0 | 0.00 | 0.00 | 0.00 | 38 | 1011.8 |
| 20260902215004 | 99 | 96 | 1.0 | 10.0 | 0.00 | 0.00 | 0.00 | 39 | 1011.9 |
| 20260902214507 | 100 | 86 | 2.0 | 10.0 | 0.00 | 0.00 | 0.00 | 38 | 1012.0 |
| 20260902214004 | 100 | 74 | 3.0 | 12.0 | 0.00 | 0.00 | 0.00 | 39 | 1012.0 |
| 20260902213505 | 100 | 157 | 2.0 | 12.0 | 0.00 | 0.00 | 0.00 | 39 | 1012.1 |
| 20260902213007 | 100 | 123 | 0.0 | 5.0 | 0.00 | 0.00 | 0.00 | 39 | 1012.1 |
| 20260902212504 | 100 | 79 | 1.0 | 9.0 | 0.00 | 0.00 | 0.00 | 39 | 1012.1 |
| 20260902212004 | 99 | 53 | 1.0 | 9.0 | 0.00 | 0.00 | 0.00 | 40 | 1012.2 |
| 20260902211507 | 99 | 70 | 1.0 | 9.0 | 0.00 | 0.00 | 0.00 | 41 | 1012.2 |
| 20260902211003 | 98 | 67 | 2.0 | 9.0 | 0.00 | 0.00 | 0.00 | 41 | 1012.3 |
| 20260902210503 | 99 | 82 | 3.0 | 9.0 | 0.00 | 0.00 | 0.00 | 39 | 1012.4 |
| 20260902210010 | 100 | 46 | 1.0 | 6.0 | 0.00 | 0.00 | 0.00 | 40 | 1012.5 |
| 20260902205503 | 99 | 136 | 1.0 | 9.0 | 0.00 | 0.00 | 0.00 | 40 | 1012.5 |
| 20260902205004 | 99 | 49 | 2.0 | 9.0 | 0.00 | 0.00 | 0.00 | 40 | 1012.6 |
| 20260902204003 | 101 | 93 | 0.0 | 3.0 | 0.00 | 0.00 | 0.00 | 39 | 1012.7 |
| 20260902203503 | 100 | 110 | 1.0 | 7.0 | 0.00 | 0.00 | 0.00 | 39 | 1012.8 |
| 20260902203008 | 100 | 95 | 1.0 | 6.0 | 0.00 | 0.00 | 0.00 | 39 | 1012.8 |
| 20260902202503 | 99 | 73 | 1.0 | 9.0 | 0.00 | 0.00 | 0.00 | 42 | 1013.0 |
| 20260902202003 | 98 | 98 | 2.0 | 8.0 | 0.00 | 0.00 | 0.00 | 41 | 1013.1 |
| 20260902201508 | 99 | 38 | 2.0 | 5.0 | 0.00 | 0.00 | 0.00 | 40 | 1013.2 |
| 20260902201004 | 98 | 78 | 0.0 | 6.0 | 0.00 | 0.00 | 0.00 | 41 | 1013.2 |
| 20260902200503 | 97 | 76 | 2.0 | 8.0 | 0.00 | 0.00 | 0.00 | 41 | 1013.4 |
| 20260902200011 | 97 | 86 | 1.0 | 8.0 | 0.00 | 0.00 | 0.00 | 42 | 1013.5 |
| 20260902195003 | 97 | 54 | 0.0 | 5.0 | 0.00 | 0.00 | 0.00 | 42 | 1013.5 |
| 20260902194508 | 98 | 83 | 1.0 | 6.0 | 0.00 | 0.00 | 0.00 | 42 | 1013.6 |
| 20260902194003 | 98 | 92 | 1.0 | 7.0 | 0.00 | 0.00 | 0.00 | 42 | 1013.6 |
| 20260902193008 | 98 | 62 | 1.0 | 7.0 | 0.00 | 0.00 | 0.00 | 42 | 1013.9 |
| 20260902192004 | 97 | 34 | 0.0 | 5.0 | 0.00 | 0.00 | 0.00 | 44 | 1014.1 |
| 20260902191507 | 96 | 38 | 1.0 | 7.0 | 0.00 | 0.00 | 0.00 | 45 | 1014.2 |
| 20260902191003 | 97 | 71 | 0.0 | 7.0 | 0.00 | 0.00 | 0.00 | 44 | 1014.2 |
| 20260902190503 | 98 | 67 | 0.0 | 6.0 | 0.00 | 0.00 | 0.00 | 43 | 1014.2 |
| 20260902190009 | 98 | 55 | 1.0 | 6.0 | 0.00 | 0.00 | 0.00 | 43 | 1014.3 |
| 20260902185503 | 97 | 229 | 0.0 | 6.0 | 0.00 | 0.00 | 0.00 | 44 | 1014.4 |
| 20260902185003 | 97 | 76 | 1.0 | 6.0 | 0.00 | 0.00 | 0.00 | 43 | 1014.5 |
| 20260902184508 | 97 | 102 | 1.0 | 6.0 | 0.00 | 0.00 | 0.00 | 44 | 1014.5 |
| 20260902184005 | 97 | 87 | 1.0 | 4.0 | 0.00 | 0.00 | 0.00 | 44 | 1014.6 |
| 20260902183503 | 96 | 130 | 1.0 | 4.0 | 0.00 | 0.00 | 0.00 | 44 | 1014.7 |
| 20260902183007 | 96 | 130 | 1.0 | 7.0 | 0.00 | 0.00 | 0.00 | 45 | 1014.8 |
| 20260902182004 | 96 | 98 | 0.0 | 8.0 | 0.00 | 0.00 | 0.00 | 46 | 1015.0 |
| 20260902181509 | 96 | 98 | 1.0 | 8.0 | 0.00 | 0.00 | 0.00 | 46 | 1015.2 |
| 20260902180503 | 95 | 121 | 1.0 | 4.0 | 0.00 | 0.00 | 0.00 | 48 | 1015.3 |
| 20260902180009 | 96 | 103 | 1.0 | 6.0 | 0.00 | 0.00 | 0.00 | 48 | 1015.4 |
| 20260902175502 | 96 | 83 | 1.0 | 6.0 | 0.00 | 0.00 | 0.00 | 48 | 1015.5 |
| 20260902175013 | 96 | 126 | 0.0 | 6.0 | 0.00 | 0.00 | 0.00 | 48 | 1015.5 |
| 20260902174506 | 95 | 140 | 0.0 | 4.0 | 0.00 | 0.00 | 0.00 | 50 | 1015.7 |
| 20260902174002 | 94 | 140 | 1.0 | 5.0 | 0.00 | 0.00 | 0.00 | 50 | 1015.7 |
| 20260902173006 | 94 | 110 | 0.0 | 6.0 | 0.00 | 0.00 | 0.00 | 50 | 1015.8 |
| 20260902172502 | 93 | 94 | 2.0 | 6.0 | 0.00 | 0.00 | 0.00 | 50 | 1016.0 |
| 20260902171506 | 94 | 94 | 0.0 | 4.0 | 0.00 | 0.00 | 0.00 | 50 | 1016.1 |
| 20260902171002 | 94 | 95 | 1.0 | 4.0 | 0.00 | 0.00 | 0.00 | 50 | 1016.2 |
| 20260902170502 | 94 | 94 | 0.0 | 3.0 | 0.00 | 0.00 | 0.00 | 51 | 1016.3 |
| 20260902165503 | 94 | 109 | 1.0 | 5.0 | 0.00 | 0.00 | 0.00 | 51 | 1016.3 |
| 20260902164506 | 93 | 133 | 0.0 | 5.0 | 0.00 | 0.00 | 0.00 | 52 | 1016.6 |
| 20260902164002 | 92 | 142 | 0.0 | 5.0 | 0.00 | 0.00 | 0.00 | 52 | 1016.6 |
| 20260902163503 | 91 | 140 | 1.0 | 7.0 | 0.00 | 0.00 | 0.00 | 53 | 1016.6 |
| 20260902163006 | 92 | 132 | 1.0 | 7.0 | 0.00 | 0.00 | 0.00 | 52 | 1016.6 |
| 20260902162502 | 91 | 39 | 1.0 | 6.0 | 0.00 | 0.00 | 0.00 | 52 | 1016.7 |
| 20260902162002 | 91 | 92 | 1.0 | 6.0 | 0.00 | 0.00 | 0.00 | 53 | 1016.7 |
| 20260902161506 | 92 | 78 | 0.0 | 6.0 | 0.00 | 0.00 | 0.00 | 53 | 1016.7 |
| 20260902161002 | 91 | 90 | 0.0 | 4.0 | 0.00 | 0.00 | 0.00 | 52 | 1016.7 |
| 20260902160502 | 91 | 88 | 1.0 | 4.0 | 0.00 | 0.00 | 0.00 | 52 | 1016.7 |
| 20260902160009 | 91 | 93 | 1.0 | 5.0 | 0.00 | 0.00 | 0.00 | 55 | 1016.7 |
| 20260902155502 | 91 | 98 | 1.0 | 6.0 | 0.00 | 0.00 | 0.00 | 55 | 1016.7 |
| 20260902155002 | 91 | 161 | 1.0 | 6.0 | 0.00 | 0.00 | 0.00 | 55 | 1016.6 |
| 20260902154505 | 90 | 70 | 0.0 | 5.0 | 0.00 | 0.00 | 0.00 | 57 | 1016.6 |
| 20260902153502 | 90 | 75 | 0.0 | 4.0 | 0.00 | 0.00 | 0.00 | 58 | 1016.6 |
| 20260902152503 | 89 | 107 | 0.0 | 7.0 | 0.00 | 0.00 | 0.00 | 59 | 1016.6 |
| 20260902151002 | 89 | 75 | 1.0 | 3.0 | 0.00 | 0.00 | 0.00 | 59 | 1016.5 |
| 20260902150502 | 88 | 80 | 0.0 | 7.0 | 0.00 | 0.00 | 0.00 | 59 | 1016.5 |
| 20260902150008 | 88 | 90 | 0.0 | 7.0 | 0.00 | 0.00 | 0.00 | 59 | 1016.4 |
| 20260902145002 | 89 | 82 | 0.0 | 3.0 | 0.00 | 0.00 | 0.00 | 59 | 1016.5 |
| 20260902144505 | 88 | 81 | 1.0 | 3.0 | 0.00 | 0.00 | 0.00 | 58 | 1016.5 |
| 20260902144002 | 88 | 91 | 0.0 | 3.0 | 0.00 | 0.00 | 0.00 | 59 | 1016.5 |
| 20260902143502 | 88 | 100 | 0.0 | 2.0 | 0.00 | 0.00 | 0.00 | 59 | 1016.6 |
| 20260902143005 | 88 | 100 | 0.0 | 4.0 | 0.00 | 0.00 | 0.00 | 60 | 1016.5 |
| 20260902142503 | 88 | 99 | 0.0 | 4.0 | 0.00 | 0.00 | 0.00 | 61 | 1016.5 |
| 20260902141506 | 87 | 121 | 0.0 | 4.0 | 0.00 | 0.00 | 0.00 | 62 | 1016.6 |
| 20260902140502 | 87 | 114 | 0.0 | 2.0 | 0.00 | 0.00 | 0.00 | 61 | 1016.5 |
| 20260902140007 | 87 | 118 | 0.0 | 2.0 | 0.00 | 0.00 | 0.00 | 61 | 1016.4 |
| 20260902135002 | 86 | 134 | 1.0 | 4.0 | 0.00 | 0.00 | 0.00 | 62 | 1016.5 |
| 20260902134506 | 86 | 145 | 0.0 | 4.0 | 0.00 | 0.00 | 0.00 | 63 | 1016.4 |
| 20260902133502 | 86 | 145 | 0.0 | 3.0 | 0.00 | 0.00 | 0.00 | 63 | 1016.4 |
| 20260902133006 | 86 | 145 | 0.0 | 2.0 | 0.00 | 0.00 | 0.00 | 63 | 1016.3 |
| 20260902132502 | 86 | 145 | 0.0 | 1.0 | 0.00 | 0.00 | 0.00 | 65 | 1016.3 |
| 20260902132002 | 85 | 145 | 0.0 | 1.0 | 0.00 | 0.00 | 0.00 | 66 | 1016.3 |
| 20260902131506 | 84 | 145 | 0.0 | 3.0 | 0.00 | 0.00 | 0.00 | 66 | 1016.3 |
| 20260902131002 | 84 | 145 | 0.0 | 3.0 | 0.00 | 0.00 | 0.00 | 67 | 1016.3 |
| 20260902125501 | 81 | 145 | 0.0 | 0.0 | 0.00 | 0.00 | 0.00 | 72 | 1016.1 |
| 20260902124505 | 81 | 145 | 0.0 | 0.0 | 0.00 | 0.00 | 0.00 | 73 | 1016.1 |
| 20260902124002 | 80 | 145 | 0.0 | 0.0 | 0.00 | 0.00 | 0.00 | 73 | 1016.0 |
| 20260902123500 | 80 | 145 | 0.0 | 0.0 | 0.00 | 0.00 | 0.00 | 73 | 1016.0 |
| 20260902123003 | 80 | 145 | 0.0 | 0.0 | 0.00 | 0.00 | 0.00 | 73 | 1015.9 |
| 20260902122502 | 80 | 145 | 0.0 | 0.0 | 0.00 | 0.00 | 0.00 | 73 | 1015.9 |
| 20260902122001 | 79 | 145 | 0.0 | 0.0 | 0.00 | 0.00 | 0.00 | 73 | 1015.8 |
| 20260902121504 | 80 | 145 | 0.0 | 0.0 | 0.00 | 0.00 | 0.00 | 73 | 1015.7 |
| 20260902121001 | 80 | 145 | 0.0 | 0.0 | 0.00 | 0.00 | 0.00 | 73 | 1015.7 |
| 20260902120501 | 80 | 145 | 0.0 | 0.0 | 0.00 | 0.00 | 0.00 | 72 | 1015.7 |
| 20260902120006 | 80 | 145 | 0.0 | 0.0 | 0.00 | 0.00 | 0.00 | 72 | 1015.6 |
| 20260902115501 | 80 | 145 | 0.0 | 0.0 | 0.00 | 0.00 | 0.00 | 72 | 1015.7 |
| 20260902115001 | 80 | 145 | 0.0 | 0.0 | 0.00 | 0.00 | 0.00 | 71 | 1015.7 |
| 20260902114503 | 81 | 145 | 0.0 | 0.0 | 0.00 | 0.00 | 0.00 | 71 | 1015.6 |
| 20260902114001 | 81 | 145 | 0.0 | 0.0 | 0.00 | 0.00 | 0.00 | 71 | 1015.7 |
| 20260902113004 | 81 | 145 | 0.0 | 0.0 | 0.00 | 0.00 | 0.00 | 70 | 1015.7 |
| 20260902112501 | 81 | 145 | 0.0 | 0.0 | 0.00 | 0.00 | 0.00 | 70 | 1015.7 |
| 20260902112001 | 81 | 145 | 0.0 | 0.0 | 0.00 | 0.00 | 0.00 | 70 | 1015.8 |
| 20260902111504 | 81 | 145 | 0.0 | 1.0 | 0.00 | 0.00 | 0.00 | 70 | 1015.8 |
| 20260902110501 | 81 | 145 | 0.0 | 2.0 | 0.00 | 0.00 | 0.00 | 69 | 1015.8 |
| 20260902110008 | 82 | 145 | 0.0 | 2.0 | 0.00 | 0.00 | 0.00 | 69 | 1015.8 |
| 20260902105501 | 81 | 145 | 0.0 | 1.0 | 0.00 | 0.00 | 0.00 | 69 | 1015.7 |
| 20260902105000 | 81 | 145 | 0.0 | 1.0 | 0.00 | 0.00 | 0.00 | 69 | 1015.7 |
| 20260902104504 | 81 | 145 | 0.0 | 1.0 | 0.00 | 0.00 | 0.00 | 69 | 1015.7 |
| 20260902104000 | 81 | 145 | 0.0 | 1.0 | 0.00 | 0.00 | 0.00 | 69 | 1015.7 |
| 20260902103500 | 81 | 145 | 0.0 | 1.0 | 0.00 | 0.00 | 0.00 | 69 | 1015.7 |
| 20260902103003 | 81 | 145 | 0.0 | 1.0 | 0.00 | 0.00 | 0.00 | 69 | 1015.6 |
| 20260902102500 | 81 | 145 | 0.0 | 0.0 | 0.00 | 0.00 | 0.00 | 69 | 1015.5 |
| 20260902102000 | 81 | 145 | 0.0 | 0.0 | 0.00 | 0.00 | 0.00 | 68 | 1015.6 |
| 20260902101504 | 81 | 145 | 0.0 | 0.0 | 0.00 | 0.00 | 0.00 | 68 | 1015.7 |
| 20260902101001 | 82 | 145 | 0.0 | 0.0 | 0.00 | 0.00 | 0.00 | 68 | 1015.6 |
| 20260902100501 | 82 | 145 | 0.0 | 0.0 | 0.00 | 0.00 | 0.00 | 67 | 1015.5 |
| 20260902100005 | 82 | 145 | 0.0 | 0.0 | 0.00 | 0.00 | 0.00 | 67 | 1015.6 |
| 20260902095500 | 82 | 145 | 0.0 | 0.0 | 0.00 | 0.00 | 0.00 | 66 | 1015.5 |
| 20260902095001 | 82 | 145 | 0.0 | 0.0 | 0.00 | 0.00 | 0.00 | 66 | 1015.5 |
| 20260902094503 | 83 | 145 | 0.0 | 0.0 | 0.00 | 0.00 | 0.00 | 65 | 1015.6 |
| 20260902094000 | 83 | 145 | 0.0 | 0.0 | 0.00 | 0.00 | 0.00 | 65 | 1015.6 |
| 20260902093500 | 83 | 145 | 0.0 | 2.0 | 0.00 | 0.00 | 0.00 | 65 | 1015.6 |
| 20260902093005 | 83 | 145 | 0.0 | 2.0 | 0.00 | 0.00 | 0.00 | 65 | 1015.6 |
| 20260902092500 | 83 | 145 | 0.0 | 0.0 | 0.00 | 0.00 | 0.00 | 65 | 1015.6 |
| 20260902092002 | 83 | 145 | 0.0 | 0.0 | 0.00 | 0.00 | 0.00 | 65 | 1015.6 |
| 20260902091504 | 83 | 145 | 0.0 | 0.0 | 0.00 | 0.00 | 0.00 | 64 | 1015.6 |
| 20260902091000 | 84 | 145 | 0.0 | 0.0 | 0.00 | 0.00 | 0.00 | 64 | 1015.6 |
| 20260902090459 | 84 | 145 | 0.0 | 0.0 | 0.00 | 0.00 | 0.00 | 63 | 1015.6 |
| 20260902090007 | 84 | 145 | 0.0 | 0.0 | 0.00 | 0.00 | 0.00 | 63 | 1015.6 |
| 20260902085501 | 84 | 145 | 0.0 | 1.0 | 0.00 | 0.00 | 0.00 | 62 | 1015.6 |
| 20260902085000 | 84 | 145 | 0.0 | 2.0 | 0.00 | 0.00 | 0.00 | 62 | 1015.6 |
| 20260902084001 | 85 | 145 | 0.0 | 4.0 | 0.00 | 0.00 | 0.00 | 62 | 1015.6 |
| 20260902083500 | 85 | 145 | 1.0 | 4.0 | 0.00 | 0.00 | 0.00 | 62 | 1015.6 |
| 20260902083004 | 85 | 145 | 0.0 | 3.0 | 0.00 | 0.00 | 0.00 | 61 | 1015.6 |
| 20260902082501 | 85 | 145 | 0.0 | 3.0 | 0.00 | 0.00 | 0.00 | 61 | 1015.7 |
| 20260902082000 | 85 | 145 | 0.0 | 3.0 | 0.00 | 0.00 | 0.00 | 61 | 1015.7 |
| 20260902080501 | 85 | 145 | 0.0 | 5.0 | 0.00 | 0.00 | 0.00 | 61 | 1015.6 |
| 20260902080006 | 86 | 142 | 0.0 | 5.0 | 0.00 | 0.00 | 0.00 | 61 | 1015.6 |
| 20260902075501 | 86 | 141 | 0.0 | 8.0 | 0.00 | 0.00 | 0.00 | 61 | 1015.6 |
| 20260902075000 | 86 | 140 | 2.0 | 8.0 | 0.00 | 0.00 | 0.00 | 61 | 1015.7 |
| 20260902074000 | 86 | 183 | 2.0 | 7.0 | 0.00 | 0.00 | 0.00 | 61 | 1015.7 |
| 20260902073500 | 86 | 176 | 1.0 | 10.0 | 0.00 | 0.00 | 0.00 | 61 | 1015.7 |
| 20260902073004 | 86 | 182 | 1.0 | 10.0 | 0.00 | 0.00 | 0.00 | 60 | 1015.6 |
| 20260902072500 | 86 | 196 | 1.0 | 7.0 | 0.00 | 0.00 | 0.00 | 60 | 1015.7 |
| 20260902072001 | 86 | 202 | 1.0 | 7.0 | 0.00 | 0.00 | 0.00 | 60 | 1015.7 |
| 20260902071504 | 87 | 200 | 1.0 | 8.0 | 0.00 | 0.00 | 0.00 | 60 | 1015.7 |
| 20260902071000 | 87 | 139 | 1.0 | 7.0 | 0.00 | 0.00 | 0.00 | 60 | 1015.6 |
| 20260902070007 | 87 | 168 | 0.0 | 9.0 | 0.00 | 0.00 | 0.00 | 59 | 1015.7 |
| 20260902065000 | 87 | 222 | 1.0 | 7.0 | 0.00 | 0.00 | 0.00 | 59 | 1015.7 |
| 20260902064504 | 87 | 202 | 2.0 | 7.0 | 0.00 | 0.00 | 0.00 | 59 | 1015.7 |